sat.trackr.live / text

‹ back to catalog

STARLINK-36511

NORAD 67451 · 2026-008G

PAYLOAD ACTIVE UNKNOWN

§ Identity

Operator
Country
US
Launch date
2026-01-14
Launch site
AFETR
Launch vehicle
Mass (kg)
RCS (m²)

Purposes: comms

External: N2YO · Heavens-Above · Gunter

§ Orbital elements

Epoch: 2026-05-25T00:42:52.686144Z

Period
94.27 min
Inclination
42.9970°
Eccentricity
0.0001224
Mean motion
15.27603604 rev/d
Perigee alt
482.1 km
Apogee alt
483.8 km
Semi-major
6,861.1 km
B*
9.4008e-4
RAAN
134.4277°
Arg perigee
225.9537°
Mean anomaly
134.1214°
Rev number
2,124

§ Raw data

STARLINK-365111 67451U 26008G   26145.02977646  .00025716  00000+0  94008-3 0  99922 67451  42.9970 134.4277 0001224 225.9537 134.1214 15.27603604 21245

JSON: /api/v1/satellites/67451 · /tle

For live sub-satellite position, see the globe view (requires WebGL).

§ Visibility from observer

Set your observer location to see the next 7 days of passes ≥ 10°. The values pass through the URL so the page stays shareable.

No JS? Fill the form by hand. The geolocation button needs JavaScript.